RH
56 56 57 58 59 58 56 54 53 54 53 53 53 54 55 56 57 59 61 60 59 57 56 55 54 54 55 57 59 60 60 60 60 58 57 58 60 64 64 57 51 43 37 35 36 37 38 39 39 38 36 37
56 55 55 57 60 61 59 56 55 56 55 55 56 56 57 59 59 60 61 60 59 57 56 56 56 56 57 58 60 62 63 63 63 63 61 61 63 68 70 65 55 44 38 37 37 39 40 42 43 42 41 42
54 53 51 52 58 62 62 59 57 56 57 57 57 58 60 61 60 60 61 61 59 58 57 56 57 58 59 60 61 63 64 65 66 66 65 64 66 72 75 71 60 47 39 38 39 40 43 44 44 46 46 44
55 53 50 49 53 60 62 62 60 60 60 60 60 60 61 62 61 60 60 60 59 58 58 57 58 59 61 62 62 64 65 67 68 68 68 67 68 75 79 76 64 49 40 39 40 43 45 44 43 44 41 38
63 58 53 48 48 55 61 62 62 63 63 63 63 63 63 63 62 61 60 60 60 59 59 59 59 60 62 63 63 63 66 69 71 71 70 68 71 77 81 79 68 50 40 39 41 45 44 41 39 36 33 31
71 68 63 57 49 49 54 59 61 63 64 65 66 66 65 64 62 61 61 61 62 61 60 60 60 61 62 64 64 63 66 70 73 74 72 72 75 77 78 79 72 53 41 40 43 46 43 37 35 32 32 34
73 78 75 73 66 57 54 55 59 61 63 66 68 69 67 64 64 62 62 63 63 63 62 61 61 61 61 63 64 64 66 70 72 75 75 76 77 76 77 82 77 57 43 42 44 45 41 37 34 33 35 40
76 83 79 78 79 76 67 60 62 63 65 67 69 73 71 65 65 65 64 64 65 65 64 62 61 61 60 59 61 64 68 71 74 79 80 79 79 77 78 84 81 61 44 43 46 46 42 39 36 34 36 40
80 87 80 74 75 78 77 74 73 72 70 68 70 78 78 70 66 68 68 68 69 68 66 63 62 62 60 57 55 59 68 73 75 82 85 83 81 79 79 84 82 62 46 46 48 48 45 45 42 36 37 40
81 92 90 82 75 76 81 82 82 81 78 76 77 83 85 77 69 68 68 70 71 72 69 64 64 62 59 58 55 55 67 76 81 86 88 86 83 81 80 85 84 63 48 50 50 49 48 50 49 40 38 41
78 88 96 93 88 88 87 86 86 84 83 84 83 82 84 82 76 72 70 73 77 79 76 72 74 70 62 63 62 61 68 80 88 90 88 88 85 83 83 86 83 63 51 54 52 52 53 54 53 44 39 41
81 83 92 96 98 98 94 91 92 90 89 91 91 89 87 86 87 87 81 81 88 89 84 84 87 80 70 67 67 69 73 80 88 90 88 88 88 86 85 88 83 63 55 59 57 57 59 57 54 47 46 48
83 85 90 93 97 98 96 96 99 100 97 95 97 97 93 91 94 95 90 87 93 94 88 88 86 80 75 71 70 73 78 81 84 89 89 88 89 87 87 91 83 64 58 61 58 57 58 56 52 50 52 53
72 82 88 90 94 96 97 100 101 97 94 96 98 96 94 95 96 96 94 92 95 96 93 92 86 81 77 74 73 76 81 82 84 90 90 89 90 88 88 89 76 60 57 59 56 54 54 54 51 50 55 53
61 71 82 87 93 97 97 97 97 95 96 99 99 98 97 96 94 95 94 93 96 99 98 96 92 87 81 78 78 80 86 85 88 95 94 94 93 90 90 83 67 57 59 59 57 56 56 58 54 55 61 59
58 62 72 77 82 91 97 96 93 95 100 101 100 100 96 94 95 97 96 95 98 101 98 96 96 91 86 86 84 85 89 86 92 100 98 98 97 94 89 75 62 61 63 61 60 61 61 62 59 57 64 65
63 64 69 69 67 72 83 92 94 94 98 100 100 97 94 97 100 100 101 99 99 101 100 99 98 92 91 94 94 93 91 86 94 100 99 99 97 93 83 68 62 64 64 62 61 63 63 65 64 61 64 64
68 72 75 76 74 68 67 76 87 91 94 95 94 94 95 99 98 96 98 98 99 101 100 100 98 94 94 96 97 97 94 91 97 101 99 97 93 87 78 70 67 66 65 64 65 67 69 71 70 69 68 64
71 80 83 86 91 89 81 79 83 86 88 86 87 94 96 95 95 95 96 98 100 101 100 100 100 99 99 98 97 98 97 96 99 99 95 90 88 84 79 75 73 71 71 71 73 75 76 75 74 74 72 67
68 82 90 91 95 98 98 95 93 92 91 87 90 99 99 95 94 96 99 101 100 99 99 99 100 100 100 100 99 100 98 97 99 98 92 87 84 83 81 79 77 77 78 79 81 82 81 80 79 80 77 73
62 74 87 93 96 98 99 100 99 99 99 97 96 99 100 98 96 97 99 98 95 97 99 100 100 100 100 100 100 100 99 97 99 99 96 92 86 83 81 80 79 80 81 84 88 89 89 88 87 85 79 75
60 66 77 85 91 94 95 98 100 100 100 100 98 97 97 95 92 94 98 97 97 100 101 100 100 99 99 100 100 100 100 99 100 100 99 98 95 90 85 81 78 77 80 86 92 95 94 92 90 86 78 74
64 67 75 83 87 87 86 88 92 96 99 100 99 97 95 90 83 86 95 98 98 100 100 100 100 100 100 99 100 100 100 100 99 99 100 100 99 96 91 86 80 77 80 89 98 100 99 96 90 83 78 79
73 74 81 89 92 90 88 86 84 84 88 94 99 99 95 89 85 86 93 96 98 101 99 98 97 98 99 98 98 100 100 100 99 99 99 99 100 99 97 94 88 83 83 90 97 98 99 99 93 87 86 88
81 81 86 91 93 95 95 92 88 81 78 81 89 96 95 90 88 89 92 95 100 102 99 96 96 97 99 98 98 100 100 100 100 98 96 98 100 99 100 98 95 90 87 89 93 96 99 100 99 98 96 97
82 84 84 87 89 92 95 95 92 85 79 76 81 92 97 94 92 94 97 98 99 100 98 97 98 99 100 99 99 100 100 99 100 98 95 97 99 99 99 99 97 94 91 90 90 92 96 97 97 97 96 96
81 88 84 84 87 87 91 94 90 87 82 78 81 91 98 98 97 98 100 100 98 98 99 98 98 100 100 99 95 94 98 100 99 99 97 98 100 100 99 100 99 98 96 94 90 89 87 86 85 86 86 86
74 89 90 88 88 86 90 91 86 87 87 82 81 87 95 99 100 100 100 100 99 98 98 97 98 100 100 99 94 93 99 100 99 100 99 99 100 99 98 99 100 100 99 99 97 96 93 89 86 85 84 86
70 82 91 94 93 89 93 93 86 86 90 89 86 87 92 97 99 100 100 100 100 99 96 94 98 100 100 99 96 97 100 100 99 100 100 100 100 99 97 98 100 100 100 100 99 100 99 98 96 94 94 96
75 81 87 92 95 95 97 97 90 88 93 96 94 94 94 96 99 100 100 100 100 100 97 96 99 99 98 99 98 97 99 100 100 99 99 98 99 100 98 98 100 100 100 100 99 100 100 100 100 99 99 100
81 89 91 91 94 98 100 99 94 91 96 99 98 100 99 98 100 99 99 100 100 100 99 99 100 98 98 100 99 98 99 99 100 99 97 96 97 100 99 99 100 100 100 100 100 100 99 99 100 99 100 100
Wind_Speed
33 33 33 34 34 33 32 31 31 31 31 31 31 31 30 29 29 27 25 23 23 23 23 22 21 22 24 25 25 25 25 26 27 26 25 24 22 22 21 21 21 20 19 18 18 17 17 17 17 18 18 17
33 33 32 32 33 34 34 33 32 32 31 32 33 32 32 31 31 29 27 25 24 24 24 24 23 24 26 27 27 27 27 27 28 28 28 26 24 23 23 22 22 21 21 19 19 18 18 18 18 19 18 18
34 34 33 32 32 34 35 34 34 33 32 33 34 34 34 33 32 31 29 27 26 26 26 26 25 26 28 29 29 29 29 29 29 29 30 28 25 23 24 23 23 23 22 21 20 19 19 20 20 20 20 19
38 36 35 33 33 34 35 35 35 34 34 34 35 36 36 34 34 33 31 29 28 28 28 28 28 28 29 30 31 31 30 30 30 31 31 30 26 25 25 24 24 24 23 22 21 21 21 21 21 21 20 18
38 37 36 36 35 35 36 36 35 35 35 35 36 37 37 37 35 35 34 32 31 30 30 30 30 30 31 32 32 32 31 31 32 32 33 31 27 26 27 26 26 25 25 24 23 22 22 22 22 21 19 16
35 36 36 37 37 37 38 37 37 36 36 36 37 38 38 39 37 36 35 34 33 33 33 32 32 31 32 32 33 33 32 32 33 34 34 31 28 29 29 28 27 26 26 25 24 23 23 23 23 21 19 16
34 34 35 37 36 37 39 38 38 38 39 39 39 39 40 40 39 38 37 36 36 36 35 33 33 33 33 33 34 34 33 33 34 34 34 32 31 31 30 29 28 27 28 27 25 24 23 23 22 22 20 18
34 32 35 37 36 36 37 38 40 41 41 40 39 39 41 41 40 40 39 38 39 38 37 35 34 34 34 35 34 34 34 34 34 34 34 34 33 32 31 30 29 29 29 28 26 25 23 23 23 23 22 20
33 31 34 37 36 35 36 38 40 40 40 40 40 40 42 43 42 41 40 40 41 39 38 37 36 36 36 36 35 35 34 34 34 34 33 34 33 33 32 31 31 31 30 29 28 26 25 24 25 25 24 23
34 32 32 34 34 34 37 38 38 38 39 40 40 41 42 43 42 41 42 42 41 40 39 38 38 38 37 37 37 35 33 32 34 34 34 34 34 33 32 31 32 32 31 30 29 28 26 25 26 27 26 25
35 34 31 31 33 35 37 37 37 38 39 40 40 41 42 43 43 43 44 43 40 39 38 37 38 39 38 37 38 37 34 32 33 35 36 35 35 33 32 32 33 33 32 31 31 30 28 27 27 28 28 27
33 35 33 33 34 34 34 34 37 38 36 37 37 39 41 42 43 44 44 42 38 37 37 36 37 39 39 39 40 39 38 35 34 36 37 36 35 34 33 34 34 34 33 32 33 32 31 30 30 30 31 30
32 34 34 34 34 33 32 32 36 36 34 36 38 38 40 42 43 44 43 39 38 38 38 37 39 41 41 41 41 40 39 36 34 35 36 37 36 35 35 35 35 35 35 34 35 34 34 33 32 33 33 33
31 32 34 34 35 34 34 34 37 39 42 41 39 37 38 40 41 41 41 40 41 42 41 40 40 42 42 43 41 38 36 34 32 33 36 37 36 36 36 37 37 36 36 36 36 36 35 34 34 34 35 34
31 31 32 34 36 36 36 36 35 39 45 41 36 36 35 38 40 41 42 43 44 46 44 42 42 42 42 41 39 36 35 34 31 31 34 36 36 36 37 37 37 37 36 36 36 37 37 36 35 35 36 35
32 31 31 33 35 36 37 37 35 38 41 36 35 36 37 41 45 46 44 44 47 48 46 42 39 37 36 37 36 34 34 35 32 31 34 35 35 37 37 38 37 37 37 37 37 38 38 38 37 37 37 37
31 32 33 33 34 35 38 37 37 39 39 39 37 37 42 44 45 47 45 44 47 47 44 41 37 34 33 34 35 35 35 35 33 32 33 34 34 36 37 38 38 38 38 38 38 38 39 39 39 39 39 38
30 31 32 33 33 33 35 37 37 37 38 39 37 37 42 43 44 48 48 48 49 46 40 39 37 34 34 33 33 33 33 33 32 31 32 32 33 35 37 38 39 39 39 39 39 39 40 41 41 41 40 39
28 29 30 31 32 32 32 35 36 36 36 36 37 39 38 39 45 51 54 52 49 43 39 40 38 35 33 30 28 27 28 29 30 30 30 32 33 34 35 37 38 39 39 40 40 40 41 42 42 42 41 40
27 27 27 28 29 31 30 31 32 33 33 33 37 40 34 33 37 43 49 49 46 45 43 40 35 32 29 25 25 26 28 29 28 29 30 31 32 33 34 35 37 38 40 40 40 41 42 43 43 43 43 42
29 27 27 26 27 29 30 30 29 30 31 32 35 38 35 35 36 38 41 45 52 53 44 36 32 29 26 25 26 29 30 30 29 30 31 32 32 34 35 36 37 39 40 40 40 41 42 43 44 44 43 42
29 28 27 26 26 27 29 30 30 30 32 33 36 39 39 39 40 41 42 45 49 46 40 35 33 30 27 27 28 30 31 30 30 32 33 33 34 35 36 37 37 38 40 41 41 42 43 44 44 45 44 43
30 29 27 27 26 26 26 28 30 31 32 34 36 38 39 39 40 41 41 43 44 43 43 37 33 32 32 31 31 32 33 33 32 33 33 33 35 36 37 36 36 36 38 39 41 42 43 44 45 46 45 44
33 30 28 26 25 25 25 26 27 29 31 33 34 35 36 35 36 36 36 41 45 45 42 37 35 37 37 35 34 33 35 36 33 32 32 33 34 36 37 37 37 37 39 39 40 42 44 45 46 46 46 45
35 33 30 27 26 26 26 27 27 28 29 30 31 32 33 34 33 32 33 35 42 39 37 38 36 38 39 37 34 35 37 37 33 31 31 32 33 34 35 37 38 39 40 41 42 43 44 44 44 43 43 42
35 35 33 31 30 30 30 29 29 29 29 30 30 28 30 33 33 33 32 32 41 41 41 37 35 40 40 35 34 36 38 38 33 29 28 29 30 31 32 33 34 36 37 38 39 40 40 40 40 39 39 39
34 35 35 35 34 34 33 32 31 31 30 30 30 29 29 32 33 33 33 34 40 45 44 38 38 46 41 32 32 34 38 42 37 32 28 27 28 31 32 32 31 31 32 34 35 36 37 39 39 40 41 41
35 35 36 36 36 36 36 35 34 33 31 30 30 30 30 31 33 33 33 34 36 38 39 37 40 46 38 29 31 35 41 45 41 35 30 29 31 32 35 37 36 33 32 33 34 36 38 40 42 43 44 42
35 36 36 36 37 38 37 36 36 35 33 31 31 31 31 31 33 33 32 32 32 32 33 32 36 44 36 29 30 35 42 45 42 38 36 37 38 37 38 41 41 38 35 34 34 35 37 39 41 42 42 40
35 36 37 37 38 39 38 37 37 37 36 34 33 33 33 32 33 34 34 33 32 31 29 28 34 43 42 37 31 32 38 43 43 42 41 42 42 41 41 43 44 41 37 35 35 36 36 36 36 36 36 36
34 36 37 38 38 40 40 39 38 39 39 38 36 35 35 35 35 36 36 34 32 31 29 27 32 39 43 39 33 31 35 40 43 42 40 39 40 42 42 44 45 43 40 37 37 37 36 35 33 31 31 32
Wind_Direction
240 240 241 242 240 237 236 238 243 247 248 249 250 251 254 255 256 257 259 263 266 267 266 264 261 259 262 267 272 275 276 275 274 272 269 267 266 265 263 261 260 258 257 258 261 264 266 268 268 268 269 271
239 239 241 244 243 240 238 239 242 246 248 250 252 253 255 259 261 261 262 263 264 265 265 264 262 261 265 269 271 273 272 272 272 270 268 265 264 264 263 261 260 258 255 256 259 260 263 264 264 265 266 267
239 239 240 241 242 240 239 239 242 245 247 249 251 253 256 260 262 263 263 264 264 265 265 265 264 264 267 270 271 271 270 269 269 268 267 264 263 263 262 261 259 257 255 255 256 258 260 263 263 262 261 261
239 239 239 240 241 239 238 238 241 244 247 249 250 253 256 259 261 262 262 262 263 264 264 266 266 266 268 269 270 270 268 267 267 266 265 262 261 262 261 259 257 255 253 253 253 256 260 263 262 259 258 259
240 239 239 240 242 242 240 240 241 244 246 248 250 253 255 258 258 259 259 261 262 263 264 265 266 268 269 269 270 270 268 267 266 265 263 261 260 260 259 257 255 253 251 251 251 255 260 262 261 259 259 258
244 241 240 240 241 243 242 242 244 245 246 248 249 251 253 255 257 258 259 260 262 263 264 264 267 270 271 270 270 270 266 264 264 263 262 260 257 256 256 255 254 252 249 249 250 254 259 261 261 261 259 256
249 245 243 242 240 242 242 242 244 245 245 246 247 249 251 254 255 257 258 259 260 261 262 263 266 270 272 270 269 268 265 262 262 262 260 256 254 253 254 255 253 250 247 247 249 253 257 260 262 259 255 252
253 249 244 244 242 241 242 242 243 243 243 245 247 248 250 253 254 256 257 257 258 259 261 262 265 269 272 271 268 265 262 261 260 259 257 253 252 253 253 253 252 249 247 246 248 251 253 257 260 257 253 249
259 258 251 248 245 243 244 245 246 245 246 246 246 246 247 250 252 254 255 255 257 258 260 261 264 268 270 271 269 265 260 258 257 255 252 251 250 251 252 252 251 249 247 247 247 249 251 255 260 257 251 248
258 260 257 252 250 248 247 248 249 248 248 248 245 243 245 249 253 255 256 256 258 258 259 261 265 267 269 272 272 268 263 255 252 251 248 247 247 249 250 251 250 248 247 246 247 249 251 256 260 257 250 247
252 254 256 254 253 250 247 250 252 250 251 252 251 248 248 252 255 257 257 257 258 256 258 264 266 268 270 272 273 270 267 259 250 247 245 244 245 247 248 248 247 246 246 246 247 248 251 254 255 253 248 246
250 251 254 253 252 251 248 250 253 251 250 252 254 253 254 254 254 256 258 256 254 255 261 265 263 266 268 268 269 268 266 262 252 247 245 243 244 245 245 245 245 244 245 245 245 246 247 249 250 248 246 244
253 253 255 253 252 252 250 249 250 250 253 256 257 257 260 259 256 255 255 250 248 256 264 265 263 264 265 264 265 264 264 262 254 248 245 243 244 244 243 243 242 242 242 243 244 245 246 247 248 246 244 243
256 255 257 255 254 253 251 249 246 250 254 255 256 258 262 262 258 252 248 247 250 258 264 264 264 264 262 262 262 262 262 260 253 248 246 244 244 243 242 242 241 240 241 243 245 246 247 249 249 246 245 244
257 255 256 256 255 253 254 250 248 255 253 248 254 255 257 259 257 251 248 253 258 260 263 263 262 262 263 263 260 259 259 258 253 249 246 244 243 242 241 241 241 242 243 244 246 248 248 249 249 247 246 246
257 256 256 256 257 255 257 255 254 260 255 255 263 259 260 258 253 251 252 260 262 259 260 260 260 262 266 266 261 258 258 257 253 250 246 242 241 240 239 240 240 242 244 245 246 247 248 249 249 247 246 246
259 258 256 257 260 259 261 261 259 261 260 264 268 265 266 258 249 250 255 262 258 253 255 256 258 262 264 265 262 260 261 259 255 251 247 242 241 240 239 239 239 241 243 245 246 247 248 248 248 247 246 246
261 259 258 257 260 261 263 265 264 266 268 269 268 266 264 258 256 258 259 261 253 248 252 251 255 261 260 261 262 262 262 259 256 252 247 243 243 241 241 241 241 243 244 245 246 246 246 246 247 246 246 247
261 259 258 257 258 260 263 265 266 269 273 277 274 269 267 264 264 261 256 253 245 244 249 248 253 258 256 261 264 264 262 259 256 254 250 247 247 246 245 245 245 246 246 245 245 244 245 245 245 245 245 245
263 261 259 258 258 258 260 263 266 268 271 275 271 266 270 273 270 264 253 245 246 251 249 245 251 252 253 262 263 258 256 256 257 257 254 252 251 251 250 249 249 248 247 246 245 244 244 244 245 244 245 245
263 262 262 261 260 260 260 260 262 264 265 266 263 259 264 273 275 273 264 258 258 254 244 243 248 251 256 261 259 255 254 254 255 256 256 255 254 253 253 252 250 249 248 247 245 245 244 245 245 245 245 246
260 260 261 263 264 265 265 265 264 264 263 262 262 262 266 272 274 275 271 266 257 242 236 245 251 257 266 264 261 261 258 255 253 254 255 255 255 253 252 252 251 250 249 247 246 245 245 245 244 244 244 245
256 257 259 262 267 270 270 271 270 268 266 265 265 266 269 273 276 277 272 265 257 243 239 249 257 267 275 275 274 268 259 255 253 254 255 255 254 253 252 251 251 251 250 249 247 246 244 243 243 243 243 244
259 257 258 262 267 272 274 275 275 273 270 267 267 268 270 273 277 279 274 264 252 243 246 258 269 276 280 283 282 272 262 255 254 257 260 260 259 256 254 250 248 247 246 246 246 246 245 244 243 243 244 244
264 260 260 264 267 271 274 276 278 278 274 270 268 269 271 275 278 280 280 260 235 237 260 268 270 275 277 279 275 268 265 259 257 262 265 265 264 261 257 252 247 245 244 243 242 243 244 245 245 245 246 247
268 265 263 265 267 270 273 276 279 281 280 276 272 271 270 273 277 276 276 257 237 251 272 269 268 271 268 268 266 263 267 264 259 261 264 265 264 262 260 256 252 251 249 247 247 247 247 248 250 251 251 252
268 267 265 265 266 268 270 273 277 280 281 280 277 276 273 272 273 271 270 262 255 264 273 270 267 263 260 264 268 270 273 268 260 255 259 267 269 268 265 260 258 257 255 253 252 251 251 252 252 252 253 253
267 265 265 265 265 266 267 269 274 277 279 279 277 275 276 275 272 269 268 267 266 268 271 271 260 249 254 271 274 272 270 264 258 253 258 270 276 276 273 267 262 263 262 258 255 251 250 251 251 250 250 250
267 266 264 263 264 265 265 265 268 272 275 278 278 275 274 275 274 269 267 266 268 268 270 268 248 238 252 277 277 268 260 256 254 255 265 276 279 278 276 270 263 263 266 263 259 255 252 252 253 253 253 252
268 267 265 263 262 263 263 263 265 268 271 274 276 276 275 275 274 269 266 265 266 266 267 259 242 240 254 270 274 266 257 254 254 259 270 278 280 277 274 269 263 262 266 267 264 261 260 259 260 260 259 257
268 267 266 265 263 262 261 263 264 265 268 269 269 271 274 275 276 273 268 267 267 266 264 256 247 248 254 261 267 268 262 258 257 262 271 275 277 277 273 269 264 262 266 269 265 263 263 261 259 260 259 258